| time (UTC) | temp C | wind direction | speed KPH | gust KPH | rain 1hr cm | rain 24hr cm | rain mn cm | humidity % | barometer mb |
| 20260507010814 | 16 | 290 | 3.2 | 11.3 | 0.03 | 0.53 | 0.53 | 86 | 1008.5 |
| 20260507005814 | 16 | 244 | 4.8 | 14.5 | 0.03 | 0.53 | 0.53 | 86 | 1008.7 |
| 20260507005314 | 16 | 285 | 6.4 | 14.5 | 0.00 | 0.51 | 0.51 | 86 | 1008.6 |
| 20260507004814 | 16 | 236 | 6.4 | 12.9 | 0.00 | 0.51 | 0.51 | 86 | 1008.8 |
| 20260507004314 | 16 | 320 | 4.8 | 12.9 | 0.00 | 0.51 | 0.51 | 86 | 1008.4 |
| 20260507003814 | 16 | 344 | 1.6 | 8.0 | 0.00 | 0.51 | 0.51 | 86 | 1008.2 |
| 20260507003314 | 16 | 231 | 3.2 | 9.7 | 0.00 | 0.51 | 0.51 | 86 | 1008.0 |
| 20260507002814 | 16 | 284 | 4.8 | 14.5 | 0.00 | 0.51 | 0.51 | 86 | 1007.9 |
| 20260507002314 | 16 | 360 | 9.7 | 14.5 | 0.00 | 0.51 | 0.51 | 86 | 1007.8 |
| 20260507001814 | 16 | 324 | 3.2 | 16.1 | 0.00 | 0.51 | 0.51 | 87 | 1007.8 |
| 20260507001314 | 16 | 338 | 8.0 | 16.1 | 0.00 | 0.51 | 0.51 | 87 | 1007.8 |
| 20260507000814 | 16 | 329 | 1.6 | 14.5 | 0.00 | 0.51 | 0.51 | 87 | 1007.7 |
| 20260506235814 | 16 | 216 | 0.0 | 4.8 | 0.00 | 0.51 | 0.51 | 87 | 1007.6 |
| 20260506235314 | 16 | 216 | 0.0 | 4.8 | 0.00 | 0.51 | 0.51 | 86 | 1007.6 |
| 20260506234814 | 16 | 216 | 0.0 | 4.8 | 0.00 | 0.51 | 0.51 | 86 | 1007.4 |
| 20260506233814 | 17 | 305 | 0.0 | 6.4 | 0.00 | 0.51 | 0.51 | 86 | 1007.4 |
| 20260506233314 | 17 | 305 | 0.0 | 8.0 | 0.00 | 0.51 | 0.51 | 85 | 1007.5 |
| 20260506232814 | 17 | 305 | 0.0 | 8.0 | 0.00 | 0.51 | 0.51 | 85 | 1007.4 |
| 20260506231814 | 17 | 252 | 0.0 | 4.8 | 0.00 | 0.51 | 0.51 | 85 | 1007.3 |
| 20260506231314 | 17 | 252 | 0.0 | 9.7 | 0.00 | 0.51 | 0.51 | 84 | 1007.2 |
| 20260506230814 | 17 | 273 | 0.0 | 9.7 | 0.00 | 0.51 | 0.51 | 84 | 1007.1 |
| 20260506230314 | 17 | 308 | 4.8 | 9.7 | 0.00 | 0.51 | 0.51 | 84 | 1007.1 |
| 20260506225814 | 17 | 170 | 1.6 | 8.0 | 0.00 | 0.51 | 0.51 | 83 | 1007.1 |
| 20260506225314 | 17 | 205 | 3.2 | 8.0 | 0.00 | 0.51 | 0.51 | 83 | 1007.1 |
| 20260506224814 | 17 | 231 | 1.6 | 11.3 | 0.00 | 0.51 | 0.51 | 83 | 1007.2 |
| 20260506224314 | 17 | 267 | 4.8 | 11.3 | 0.00 | 0.51 | 0.51 | 83 | 1007.1 |
| 20260506223814 | 17 | 268 | 1.6 | 11.3 | 0.00 | 0.51 | 0.51 | 83 | 1007.1 |
| 20260506223314 | 17 | 242 | 3.2 | 12.9 | 0.00 | 0.51 | 0.51 | 83 | 1007.1 |
| 20260506222314 | 18 | 276 | 9.7 | 12.9 | 0.00 | 0.51 | 0.51 | 82 | 1007.1 |
| 20260506221814 | 18 | 271 | 1.6 | 12.9 | 0.00 | 0.51 | 0.51 | 83 | 1007.0 |
| 20260506221314 | 18 | 239 | 3.2 | 11.3 | 0.00 | 0.51 | 0.51 | 82 | 1006.9 |
| 20260506220814 | 18 | 209 | 4.8 | 12.9 | 0.00 | 0.51 | 0.51 | 83 | 1006.9 |
| 20260506220314 | 17 | 205 | 6.4 | 16.1 | 0.00 | 0.51 | 0.51 | 83 | 1006.5 |
| 20260506215814 | 17 | 231 | 1.6 | 16.1 | 0.00 | 0.51 | 0.51 | 83 | 1006.9 |
| 20260506215314 | 17 | 290 | 1.6 | 11.3 | 0.00 | 0.51 | 0.51 | 83 | 1006.9 |
| 20260506214314 | 17 | 210 | 1.6 | 6.4 | 0.00 | 0.51 | 0.51 | 83 | 1006.9 |
| 20260506213814 | 17 | 223 | 4.8 | 9.7 | 0.00 | 0.51 | 0.51 | 83 | 1006.9 |
| 20260506213314 | 17 | 244 | 0.0 | 14.5 | 0.00 | 0.51 | 0.51 | 83 | 1006.8 |
| 20260506212814 | 17 | 213 | 1.6 | 14.5 | 0.00 | 0.51 | 0.51 | 83 | 1006.8 |
| 20260506212314 | 18 | 223 | 8.0 | 12.9 | 0.00 | 0.51 | 0.51 | 83 | 1006.7 |
| 20260506211814 | 18 | 286 | 3.2 | 12.9 | 0.00 | 0.51 | 0.51 | 83 | 1006.5 |
| 20260506211314 | 18 | 294 | 3.2 | 12.9 | 0.00 | 0.51 | 0.51 | 83 | 1006.4 |
| 20260506210814 | 17 | 346 | 0.0 | 8.0 | 0.00 | 0.51 | 0.51 | 83 | 1006.5 |
| 20260506210314 | 17 | 184 | 3.2 | 11.3 | 0.00 | 0.51 | 0.51 | 83 | 1006.5 |
| 20260506205814 | 17 | 277 | 0.0 | 11.3 | 0.00 | 0.51 | 0.51 | 84 | 1006.5 |
| 20260506204814 | 17 | 246 | 4.8 | 11.3 | 0.00 | 0.51 | 0.51 | 84 | 1006.5 |
| 20260506203814 | 17 | 242 | 4.8 | 9.7 | 0.00 | 0.51 | 0.51 | 85 | 1006.5 |
| 20260506203314 | 17 | 242 | 4.8 | 9.7 | 0.00 | 0.51 | 0.51 | 85 | 1006.5 |
| 20260506202814 | 16 | 268 | 4.8 | 14.5 | 0.00 | 0.51 | 0.51 | 85 | 1006.5 |
| 20260506202314 | 16 | 230 | 0.0 | 14.5 | 0.00 | 0.51 | 0.51 | 85 | 1006.4 |
| 20260506201814 | 16 | 262 | 0.0 | 12.9 | 0.00 | 0.51 | 0.51 | 85 | 1006.5 |
| 20260506201314 | 16 | 227 | 4.8 | 12.9 | 0.00 | 0.51 | 0.51 | 85 | 1006.5 |
| 20260506200814 | 16 | 190 | 4.8 | 14.5 | 0.00 | 0.51 | 0.51 | 85 | 1006.5 |
| 20260506200314 | 16 | 226 | 0.0 | 14.5 | 0.00 | 0.51 | 0.51 | 86 | 1006.4 |
| 20260506195814 | 16 | 254 | 11.3 | 12.9 | 0.00 | 0.51 | 0.51 | 86 | 1006.4 |
| 20260506195314 | 16 | 190 | 1.6 | 12.9 | 0.00 | 0.51 | 0.51 | 85 | 1006.5 |
| 20260506194814 | 16 | 259 | 1.6 | 12.9 | 0.00 | 0.51 | 0.51 | 85 | 1006.5 |
| 20260506194314 | 16 | 248 | 4.8 | 11.3 | 0.00 | 0.51 | 0.51 | 85 | 1006.6 |
| 20260506193814 | 16 | 142 | 4.8 | 11.3 | 0.00 | 0.51 | 0.51 | 86 | 1006.6 |
| 20260506193314 | 16 | 261 | 4.8 | 17.7 | 0.00 | 0.51 | 0.51 | 86 | 1006.7 |
| 20260506192814 | 16 | 29 | 3.2 | 17.7 | 0.00 | 0.51 | 0.51 | 86 | 1006.6 |
| 20260506192314 | 16 | 210 | 4.8 | 14.5 | 0.00 | 0.51 | 0.51 | 86 | 1006.7 |
| 20260506191814 | 16 | 261 | 4.8 | 14.5 | 0.00 | 0.51 | 0.51 | 87 | 1006.8 |
| 20260506191314 | 16 | 233 | 1.6 | 14.5 | 0.00 | 0.51 | 0.51 | 86 | 1006.8 |
| 20260506190814 | 16 | 173 | 8.0 | 16.1 | 0.00 | 0.51 | 0.51 | 87 | 1006.8 |
| 20260506190314 | 15 | 263 | 4.8 | 16.1 | 0.00 | 0.51 | 0.51 | 87 | 1006.8 |
| 20260506185814 | 15 | 161 | 6.4 | 16.1 | 0.00 | 0.51 | 0.51 | 87 | 1006.9 |
| 20260506185314 | 15 | 208 | 1.6 | 14.5 | 0.00 | 0.51 | 0.51 | 87 | 1007.0 |
| 20260506184814 | 15 | 216 | 6.4 | 14.5 | 0.00 | 0.51 | 0.51 | 87 | 1007.0 |
| 20260506184314 | 15 | 240 | 8.0 | 8.0 | 0.00 | 0.51 | 0.51 | 87 | 1007.1 |
| 20260506183814 | 15 | 174 | 0.0 | 6.4 | 0.00 | 0.51 | 0.51 | 87 | 1007.2 |
| 20260506183314 | 15 | 209 | 1.6 | 8.0 | 0.00 | 0.51 | 0.51 | 87 | 1007.1 |
| 20260506182814 | 15 | 189 | 1.6 | 12.9 | 0.00 | 0.51 | 0.51 | 87 | 1007.2 |
| 20260506182314 | 15 | 231 | 1.6 | 16.1 | 0.00 | 0.51 | 0.51 | 86 | 1007.2 |
| 20260506181814 | 15 | 242 | 4.8 | 16.1 | 0.00 | 0.51 | 0.51 | 86 | 1007.2 |
| 20260506181314 | 15 | 360 | 4.8 | 16.1 | 0.00 | 0.51 | 0.51 | 87 | 1007.3 |
| 20260506180814 | 15 | 201 | 16.1 | 16.1 | 0.03 | 0.51 | 0.51 | 86 | 1007.3 |
| 20260506180314 | 15 | 260 | 3.2 | 16.1 | 0.05 | 0.51 | 0.51 | 86 | 1007.3 |
| 20260506175314 | 15 | 248 | 3.2 | 19.3 | 0.13 | 0.51 | 0.51 | 86 | 1007.4 |
| 20260506174814 | 15 | 221 | 1.6 | 19.3 | 0.13 | 0.51 | 0.51 | 87 | 1007.4 |
| 20260506174314 | 15 | 244 | 11.3 | 17.7 | 0.13 | 0.51 | 0.51 | 87 | 1007.4 |
| 20260506173814 | 15 | 225 | 3.2 | 11.3 | 0.13 | 0.51 | 0.51 | 87 | 1007.3 |
| 20260506173314 | 15 | 230 | 8.0 | 12.9 | 0.13 | 0.51 | 0.51 | 87 | 1007.4 |
| 20260506172814 | 15 | 279 | 0.0 | 12.9 | 0.13 | 0.51 | 0.51 | 87 | 1007.3 |
| 20260506172314 | 15 | 183 | 4.8 | 8.0 | 0.13 | 0.51 | 0.51 | 87 | 1007.3 |
| 20260506171814 | 15 | 282 | 1.6 | 8.0 | 0.13 | 0.51 | 0.51 | 87 | 1007.3 |
| 20260506171314 | 15 | 188 | 1.6 | 11.3 | 0.15 | 0.51 | 0.51 | 86 | 1007.3 |
| 20260506170814 | 15 | 204 | 8.0 | 12.9 | 0.13 | 0.48 | 0.48 | 86 | 1007.4 |
| 20260506170314 | 15 | 196 | 8.0 | 16.1 | 0.13 | 0.46 | 0.46 | 86 | 1007.6 |
| 20260506165814 | 15 | 193 | 8.0 | 16.1 | 0.08 | 0.41 | 0.41 | 86 | 1007.7 |
| 20260506165314 | 15 | 215 | 4.8 | 12.9 | 0.08 | 0.38 | 0.38 | 86 | 1007.7 |
| 20260506164814 | 15 | 205 | 3.2 | 9.7 | 0.08 | 0.38 | 0.38 | 86 | 1007.6 |
| 20260506163814 | 15 | 226 | 1.6 | 16.1 | 0.10 | 0.38 | 0.38 | 86 | 1007.6 |
| 20260506163314 | 15 | 129 | 4.8 | 14.5 | 0.13 | 0.38 | 0.38 | 86 | 1007.8 |
| 20260506162814 | 15 | 238 | 1.6 | 14.5 | 0.13 | 0.38 | 0.38 | 86 | 1007.8 |
| 20260506161814 | 15 | 216 | 9.7 | 20.9 | 0.18 | 0.38 | 0.38 | 86 | 1007.0 |
| 20260506161314 | 15 | 164 | 0.0 | 20.9 | 0.15 | 0.36 | 0.36 | 86 | 1007.0 |
| 20260506160314 | 15 | 209 | 11.3 | 11.3 | 0.15 | 0.33 | 0.33 | 87 | 1007.4 |
| 20260506155814 | 15 | 142 | 1.6 | 4.8 | 0.15 | 0.33 | 0.33 | 87 | 1007.8 |
| 20260506155314 | 15 | 138 | 0.0 | 9.7 | 0.15 | 0.30 | 0.30 | 87 | 1008.1 |
| 20260506154314 | 15 | 302 | 4.8 | 6.4 | 0.15 | 0.30 | 0.30 | 86 | 1008.4 |
| 20260506153814 | 15 | 236 | 0.0 | 4.8 | 0.13 | 0.28 | 0.28 | 86 | 1008.4 |
| 20260506153314 | 15 | 219 | 3.2 | 11.3 | 0.13 | 0.25 | 0.25 | 86 | 1008.4 |
| 20260506152814 | 15 | 218 | 1.6 | 11.3 | 0.15 | 0.25 | 0.25 | 86 | 1008.4 |
| 20260506152314 | 15 | 182 | 8.0 | 9.7 | 0.13 | 0.23 | 0.23 | 86 | 1008.6 |
| 20260506151814 | 15 | 196 | 0.0 | 8.0 | 0.13 | 0.20 | 0.20 | 86 | 1008.6 |
| 20260506151314 | 15 | 196 | 1.6 | 12.9 | 0.15 | 0.20 | 0.20 | 86 | 1008.6 |
| 20260506150814 | 15 | 243 | 3.2 | 17.7 | 0.13 | 0.18 | 0.18 | 86 | 1008.6 |
| 20260506150314 | 15 | 236 | 8.0 | 17.7 | 0.15 | 0.18 | 0.18 | 85 | 1008.5 |
| 20260506145814 | 15 | 232 | 8.0 | 12.9 | 0.15 | 0.18 | 0.18 | 85 | 1008.6 |
| 20260506145314 | 15 | 355 | 1.6 | 4.8 | 0.15 | 0.15 | 0.15 | 85 | 1008.5 |
| 20260506144314 | 16 | 5 | 0.0 | 6.4 | 0.15 | 0.15 | 0.15 | 86 | 1008.5 |
| 20260506143814 | 16 | 269 | 0.0 | 6.4 | 0.15 | 0.15 | 0.15 | 85 | 1008.5 |
| 20260506143314 | 16 | 226 | 3.2 | 6.4 | 0.13 | 0.13 | 0.13 | 85 | 1008.4 |
| 20260506142814 | 15 | 240 | 0.0 | 9.7 | 0.10 | 0.10 | 0.10 | 85 | 1008.4 |
| 20260506142314 | 15 | 240 | 4.8 | 9.7 | 0.10 | 0.10 | 0.10 | 85 | 1008.3 |
| 20260506141314 | 16 | 144 | 0.0 | 8.0 | 0.05 | 0.05 | 0.05 | 84 | 1008.4 |
| 20260506140814 | 16 | 252 | 1.6 | 9.7 | 0.05 | 0.05 | 0.05 | 84 | 1008.5 |
| 20260506140314 | 16 | 252 | 3.2 | 14.5 | 0.03 | 0.03 | 0.03 | 83 | 1008.5 |
| 20260506135814 | 16 | 244 | 1.6 | 14.5 | 0.03 | 0.03 | 0.03 | 83 | 1008.5 |
| 20260506134814 | 16 | 192 | 0.0 | 6.4 | 0.00 | 0.00 | 0.00 | 82 | 1008.4 |
| 20260506133314 | 16 | 230 | 4.8 | 6.4 | 0.00 | 0.00 | 0.00 | 81 | 1008.4 |
| 20260506132814 | 16 | 274 | 4.8 | 11.3 | 0.00 | 0.00 | 0.00 | 82 | 1008.5 |
| 20260506132314 | 16 | 252 | 1.6 | 12.9 | 0.00 | 0.00 | 0.00 | 82 | 1008.6 |
| 20260506131814 | 16 | 219 | 1.6 | 12.9 | 0.00 | 0.00 | 0.00 | 82 | 1008.6 |
| 20260506131314 | 16 | 242 | 6.4 | 8.0 | 0.00 | 0.00 | 0.00 | 81 | 1008.6 |
| 20260506130814 | 16 | 288 | 3.2 | 11.3 | 0.00 | 0.00 | 0.00 | 81 | 1008.7 |
| 20260506130314 | 16 | 213 | 1.6 | 12.9 | 0.00 | 0.00 | 0.00 | 80 | 1008.6 |
| 20260506125814 | 16 | 256 | 4.8 | 12.9 | 0.00 | 0.00 | 0.00 | 80 | 1008.7 |
| 20260506125314 | 16 | 212 | 4.8 | 12.9 | 0.00 | 0.00 | 0.00 | 80 | 1008.9 |
| 20260506124814 | 16 | 297 | 6.4 | 14.5 | 0.00 | 0.00 | 0.00 | 79 | 1008.9 |
| 20260506124314 | 16 | 261 | 4.8 | 14.5 | 0.00 | 0.00 | 0.00 | 78 | 1008.9 |
| 20260506123314 | 17 | 209 | 3.2 | 22.5 | 0.00 | 0.00 | 0.00 | 77 | 1008.8 |
| 20260506122814 | 17 | 220 | 9.7 | 19.3 | 0.00 | 0.00 | 0.00 | 76 | 1008.7 |
| 20260506122314 | 17 | 200 | 8.0 | 14.5 | 0.00 | 0.00 | 0.00 | 76 | 1008.8 |
| 20260506121814 | 17 | 213 | 1.6 | 20.9 | 0.00 | 0.00 | 0.00 | 75 | 1008.7 |
| 20260506121314 | 17 | 241 | 6.4 | 20.9 | 0.00 | 0.00 | 0.00 | 74 | 1008.6 |
| 20260506120314 | 17 | 180 | 3.2 | 19.3 | 0.00 | 0.00 | 0.00 | 74 | 1008.5 |
| 20260506115814 | 17 | 286 | 4.8 | 19.3 | 0.00 | 0.00 | 0.00 | 74 | 1008.6 |
| 20260506115314 | 17 | 233 | 3.2 | 19.3 | 0.00 | 0.00 | 0.00 | 74 | 1008.6 |
| 20260506114814 | 17 | 182 | 9.7 | 16.1 | 0.00 | 0.00 | 0.00 | 74 | 1008.6 |
| 20260506114314 | 17 | 231 | 8.0 | 16.1 | 0.00 | 0.00 | 0.00 | 74 | 1008.6 |
| 20260506113814 | 17 | 238 | 1.6 | 11.3 | 0.00 | 0.00 | 0.00 | 75 | 1008.5 |
| 20260506113314 | 17 | 261 | 6.4 | 14.5 | 0.00 | 0.00 | 0.00 | 75 | 1008.5 |
| 20260506112314 | 17 | 22 | 4.8 | 14.5 | 0.00 | 0.00 | 0.00 | 74 | 1008.4 |
| 20260506111813 | 17 | 200 | 3.2 | 12.9 | 0.00 | 0.00 | 0.00 | 74 | 1008.4 |
| 20260506111314 | 17 | 193 | 3.2 | 12.9 | 0.00 | 0.00 | 0.00 | 74 | 1008.5 |
| 20260506110813 | 17 | 246 | 3.2 | 12.9 | 0.00 | 0.00 | 0.00 | 74 | 1008.6 |
| 20260506110314 | 17 | 271 | 3.2 | 12.9 | 0.00 | 0.00 | 0.00 | 74 | 1008.7 |
| 20260506105814 | 17 | 226 | 6.4 | 11.3 | 0.00 | 0.00 | 0.00 | 74 | 1008.6 |
| 20260506105314 | 17 | 221 | 0.0 | 19.3 | 0.00 | 0.00 | 0.00 | 74 | 1008.6 |
| 20260506104813 | 17 | 194 | 6.4 | 19.3 | 0.00 | 0.00 | 0.00 | 73 | 1008.2 |
| 20260506104314 | 17 | 160 | 6.4 | 16.1 | 0.00 | 0.00 | 0.00 | 74 | 1008.3 |
| 20260506103814 | 17 | 271 | 3.2 | 16.1 | 0.00 | 0.00 | 0.00 | 73 | 1008.4 |
| 20260506103314 | 17 | 311 | 9.7 | 16.1 | 0.00 | 0.00 | 0.00 | 73 | 1008.3 |
| 20260506102814 | 17 | 287 | 3.2 | 16.1 | 0.00 | 0.00 | 0.00 | 73 | 1008.2 |
| 20260506102314 | 17 | 273 | 3.2 | 8.0 | 0.00 | 0.00 | 0.00 | 73 | 1008.2 |
| 20260506101813 | 17 | 250 | 4.8 | 8.0 | 0.00 | 0.00 | 0.00 | 73 | 1008.2 |
| 20260506101314 | 17 | 183 | 3.2 | 8.0 | 0.00 | 0.00 | 0.00 | 73 | 1008.1 |
| 20260506100814 | 17 | 134 | 1.6 | 19.3 | 0.00 | 0.00 | 0.00 | 73 | 1008.0 |
| 20260506095813 | 17 | 156 | 11.3 | 12.9 | 0.00 | 0.00 | 0.00 | 73 | 1008.0 |
| 20260506095314 | 17 | 212 | 0.0 | 14.5 | 0.00 | 0.00 | 0.00 | 72 | 1008.2 |
| 20260506094814 | 17 | 215 | 6.4 | 14.5 | 0.00 | 0.00 | 0.00 | 72 | 1008.3 |
| 20260506094314 | 17 | 319 | 4.8 | 9.7 | 0.00 | 0.00 | 0.00 | 72 | 1008.4 |
| 20260506093814 | 17 | 256 | 1.6 | 16.1 | 0.00 | 0.00 | 0.00 | 72 | 1008.3 |
| 20260506093314 | 17 | 236 | 3.2 | 16.1 | 0.00 | 0.00 | 0.00 | 72 | 1008.2 |
| 20260506091814 | 17 | 232 | 1.6 | 8.0 | 0.00 | 0.00 | 0.00 | 71 | 1008.2 |
| 20260506090813 | 17 | 274 | 4.8 | 17.7 | 0.00 | 0.00 | 0.00 | 71 | 1008.3 |
| 20260506085814 | 17 | 298 | 1.6 | 4.8 | 0.00 | 0.00 | 0.00 | 71 | 1008.3 |
| 20260506085314 | 17 | 196 | 3.2 | 8.0 | 0.00 | 0.00 | 0.00 | 70 | 1008.3 |
| 20260506084814 | 18 | 196 | 1.6 | 8.0 | 0.00 | 0.00 | 0.00 | 70 | 1008.5 |
| 20260506084314 | 18 | 264 | 4.8 | 9.7 | 0.00 | 0.00 | 0.00 | 69 | 1008.5 |
| 20260506083814 | 18 | 164 | 3.2 | 14.5 | 0.00 | 0.00 | 0.00 | 68 | 1008.5 |
| 20260506083314 | 18 | 200 | 4.8 | 14.5 | 0.00 | 0.00 | 0.00 | 68 | 1008.5 |
| 20260506082814 | 18 | 207 | 4.8 | 14.5 | 0.00 | 0.00 | 0.00 | 68 | 1008.5 |
| 20260506082314 | 18 | 32 | 0.0 | 11.3 | 0.00 | 0.00 | 0.00 | 68 | 1008.5 |
| 20260506081314 | 18 | 140 | 6.4 | 8.0 | 0.00 | 0.00 | 0.00 | 67 | 1008.6 |
| 20260506080814 | 18 | 251 | 3.2 | 8.0 | 0.00 | 0.00 | 0.00 | 67 | 1008.6 |
| 20260506080314 | 18 | 202 | 6.4 | 11.3 | 0.00 | 0.00 | 0.00 | 67 | 1008.7 |
| 20260506072814 | 18 | 158 | 3.2 | 12.9 | 0.00 | 0.00 | 0.00 | 65 | 1008.6 |
| 20260506071814 | 18 | 224 | 1.6 | 16.1 | 0.00 | 0.00 | 0.00 | 64 | 1008.7 |
| 20260506071314 | 18 | 268 | 11.3 | 14.5 | 0.00 | 0.00 | 0.00 | 64 | 1008.7 |
| 20260506070814 | 18 | 268 | 4.8 | 6.4 | 0.00 | 0.00 | 0.00 | 64 | 1008.7 |
| 20260506070314 | 18 | 267 | 0.0 | 14.5 | 0.00 | 0.00 | 0.00 | 65 | 1008.9 |
| 20260506062314 | 17 | 273 | 0.0 | 4.8 | 0.00 | 0.00 | 0.00 | 67 | 1009.2 |
| 20260506061313 | 17 | 273 | 3.2 | 6.4 | 0.00 | 0.00 | 0.00 | 64 | 1009.3 |
| 20260506060813 | 18 | 273 | 3.2 | 6.4 | 0.00 | 0.00 | 0.00 | 62 | 1009.4 |
| 20260506060314 | 18 | 273 | 3.2 | 6.4 | 0.00 | 0.00 | 0.00 | 62 | 1009.4 |
| 20260506051314 | 18 | 246 | 1.6 | 12.9 | 0.00 | 0.00 | 0.00 | 60 | 1009.8 |
| 20260506050813 | 18 | 245 | 1.6 | 12.9 | 0.00 | 0.00 | 0.00 | 59 | 1009.9 |
| 20260506050313 | 18 | 296 | 3.2 | 9.7 | 0.00 | 0.00 | 0.00 | 60 | 1009.9 |
| 20260506044813 | 18 | 171 | 1.6 | 11.3 | 0.00 | 0.00 | 0.00 | 59 | 1009.9 |
| 20260506044313 | 19 | 205 | 9.7 | 12.9 | 0.00 | 0.00 | 0.00 | 58 | 1009.9 |
| 20260506043814 | 18 | 263 | 3.2 | 12.9 | 0.00 | 0.00 | 0.00 | 59 | 1010.0 |
| 20260506043314 | 19 | 257 | 1.6 | 14.5 | 0.00 | 0.00 | 0.00 | 57 | 1010.0 |
| 20260506042813 | 19 | 217 | 4.8 | 17.7 | 0.00 | 0.00 | 0.00 | 57 | 1009.9 |
| 20260506042314 | 18 | 221 | 6.4 | 17.7 | 0.00 | 0.00 | 0.00 | 58 | 1009.8 |
| 20260506041814 | 18 | 221 | 1.6 | 16.1 | 0.00 | 0.00 | 0.00 | 58 | 1010.0 |
| 20260506041313 | 18 | 140 | 1.6 | 12.9 | 0.00 | 0.00 | 0.00 | 59 | 1010.1 |
| 20260506040313 | 18 | 222 | 1.6 | 9.7 | 0.00 | 0.00 | 0.00 | 58 | 1009.9 |
| 20260506035814 | 17 | 221 | 6.4 | 6.4 | 0.00 | 0.00 | 0.00 | 60 | 1009.8 |
| 20260506035313 | 18 | 221 | 0.0 | 6.4 | 0.00 | 0.00 | 0.00 | 58 | 1009.8 |
| 20260506034814 | 18 | 203 | 1.6 | 11.3 | 0.00 | 0.00 | 0.00 | 57 | 1009.8 |
| 20260506034313 | 19 | 274 | 1.6 | 11.3 | 0.00 | 0.00 | 0.00 | 56 | 1009.9 |
| 20260506033813 | 18 | 204 | 3.2 | 17.7 | 0.00 | 0.00 | 0.00 | 57 | 1009.8 |
| 20260506032813 | 18 | 126 | 4.8 | 11.3 | 0.00 | 0.00 | 0.00 | 59 | 1009.8 |
| 20260506031813 | 18 | 244 | 1.6 | 6.4 | 0.00 | 0.00 | 0.00 | 58 | 1009.7 |
| 20260506031313 | 18 | 228 | 1.6 | 4.8 | 0.00 | 0.00 | 0.00 | 58 | 1009.7 |
| 20260506030814 | 18 | 193 | 3.2 | 6.4 | 0.00 | 0.00 | 0.00 | 57 | 1009.8 |
| 20260506030313 | 19 | 196 | 3.2 | 11.3 | 0.00 | 0.00 | 0.00 | 56 | 1009.9 |
| 20260506025814 | 20 | 221 | 1.6 | 12.9 | 0.00 | 0.00 | 0.00 | 54 | 1009.8 |
| 20260506025313 | 19 | 220 | 6.4 | 12.9 | 0.00 | 0.00 | 0.00 | 56 | 1009.7 |
| 20260506024814 | 18 | 294 | 6.4 | 6.4 | 0.00 | 0.00 | 0.00 | 58 | 1009.8 |
| 20260506024314 | 18 | 306 | 1.6 | 11.3 | 0.00 | 0.00 | 0.00 | 57 | 1009.7 |
| 20260506023813 | 19 | 211 | 0.0 | 11.3 | 0.00 | 0.00 | 0.00 | 56 | 1009.8 |
| 20260506023314 | 18 | 323 | 4.8 | 6.4 | 0.00 | 0.00 | 0.00 | 57 | 1009.8 |
| 20260506022313 | 19 | 221 | 0.0 | 8.0 | 0.00 | 0.00 | 0.00 | 56 | 1009.8 |
| 20260506021813 | 19 | 221 | 3.2 | 8.0 | 0.00 | 0.00 | 0.00 | 54 | 1009.8 |
| 20260506021313 | 19 | 285 | 4.8 | 11.3 | 0.00 | 0.00 | 0.00 | 55 | 1009.9 |
| 20260506020814 | 20 | 285 | 3.2 | 11.3 | 0.00 | 0.00 | 0.00 | 53 | 1009.8 |
| 20260506020313 | 20 | 218 | 8.0 | 11.3 | 0.00 | 0.00 | 0.00 | 53 | 1009.8 |
| 20260506015814 | 19 | 225 | 11.3 | 11.3 | 0.00 | 0.00 | 0.00 | 55 | 1009.7 |
| 20260506014814 | 19 | 17 | 1.6 | 6.4 | 0.00 | 0.00 | 0.00 | 53 | 1009.5 |
| 20260506014314 | 20 | 17 | 0.0 | 4.8 | 0.00 | 0.00 | 0.00 | 50 | 1009.5 |
| 20260506013814 | 20 | 17 | 0.0 | 8.0 | 0.00 | 0.00 | 0.00 | 51 | 1009.4 |
| 20260506013314 | 20 | 17 | 3.2 | 11.3 | 0.00 | 0.00 | 0.00 | 51 | 1009.4 |
| 20260506012814 | 20 | 140 | 4.8 | 11.3 | 0.00 | 0.00 | 0.00 | 50 | 1009.4 |
| 20260506012313 | 20 | 211 | 3.2 | 6.4 | 0.00 | 0.00 | 0.00 | 50 | 1009.3 |
| 20260506011314 | 21 | 255 | 0.0 | 11.3 | 0.00 | 0.00 | 0.00 | 47 | 1009.2 |